| time (UTC) | temp F | wind direction | speed MPH | gust MPH | rain 1hr in | rain 24hr in | rain mn in | humidity % | barometer mb |
| 20260902083122 | 63 | 82 | 2.0 | 4.0 | 0.00 | 0.00 | 0.00 | 55 | 1014.5 |
| 20260902082143 | 62 | 120 | 1.0 | 3.0 | 0.00 | 0.00 | 0.00 | 59 | 1014.5 |
| 20260902081122 | 63 | 126 | 0.0 | 2.0 | 0.00 | 0.00 | 0.00 | 59 | 1014.4 |
| 20260902080122 | 63 | 126 | 0.0 | 3.0 | 0.00 | 0.00 | 0.00 | 58 | 1014.5 |
| 20260902075122 | 63 | 125 | 0.0 | 1.0 | 0.00 | 0.00 | 0.00 | 57 | 1014.4 |
| 20260902074122 | 63 | 125 | 0.0 | 2.0 | 0.00 | 0.00 | 0.00 | 57 | 1014.3 |
| 20260902073122 | 64 | 116 | 1.0 | 5.0 | 0.00 | 0.00 | 0.00 | 56 | 1014.4 |
| 20260902072143 | 64 | 121 | 0.0 | 3.0 | 0.00 | 0.00 | 0.00 | 56 | 1014.3 |
| 20260902071122 | 65 | 127 | 1.0 | 4.0 | 0.00 | 0.00 | 0.00 | 54 | 1014.2 |
| 20260902070122 | 66 | 153 | 1.0 | 4.0 | 0.00 | 0.00 | 0.00 | 53 | 1014.2 |
| 20260902065122 | 66 | 109 | 2.0 | 5.0 | 0.00 | 0.00 | 0.00 | 51 | 1014.2 |
| 20260902064122 | 66 | 159 | 1.0 | 3.0 | 0.00 | 0.00 | 0.00 | 52 | 1014.1 |
| 20260902063122 | 67 | 110 | 1.0 | 3.0 | 0.00 | 0.00 | 0.00 | 50 | 1014.0 |
| 20260902062122 | 68 | 95 | 1.0 | 3.0 | 0.00 | 0.00 | 0.00 | 48 | 1014.2 |
| 20260902061122 | 68 | 94 | 2.0 | 4.0 | 0.00 | 0.00 | 0.00 | 47 | 1014.2 |
| 20260902060122 | 68 | 90 | 3.0 | 8.0 | 0.00 | 0.00 | 0.00 | 47 | 1014.3 |
| 20260902055122 | 68 | 79 | 3.0 | 5.0 | 0.00 | 0.00 | 0.00 | 47 | 1014.3 |
| 20260902054122 | 67 | 78 | 3.0 | 5.0 | 0.00 | 0.00 | 0.00 | 49 | 1014.3 |
| 20260902053122 | 66 | 82 | 2.0 | 4.0 | 0.00 | 0.00 | 0.00 | 51 | 1014.4 |
| 20260902052122 | 66 | 111 | 1.0 | 6.0 | 0.00 | 0.00 | 0.00 | 54 | 1014.4 |
| 20260902051122 | 66 | 0 | 0.0 | 0.0 | 0.00 | 0.00 | 0.00 | 54 | 1014.6 |
| 20260902050122 | 66 | 113 | 0.0 | 4.0 | 0.00 | 0.00 | 0.00 | 54 | 1014.5 |
| 20260902045143 | 66 | 0 | 0.0 | 0.0 | 0.00 | 0.00 | 0.00 | 55 | 1014.6 |
| 20260902044122 | 66 | 126 | 0.0 | 2.0 | 0.00 | 0.00 | 0.00 | 55 | 1014.5 |
| 20260902043122 | 66 | 124 | 1.0 | 3.0 | 0.00 | 0.00 | 0.00 | 53 | 1014.5 |
| 20260902042122 | 66 | 133 | 0.0 | 2.0 | 0.00 | 0.00 | 0.00 | 55 | 1014.7 |
| 20260902041122 | 66 | 124 | 0.0 | 3.0 | 0.00 | 0.00 | 0.00 | 56 | 1014.7 |
| 20260902040122 | 67 | 0 | 0.0 | 0.0 | 0.00 | 0.00 | 0.00 | 55 | 1014.7 |
| 20260902035144 | 67 | 0 | 0.0 | 0.0 | 0.00 | 0.00 | 0.00 | 54 | 1014.6 |
| 20260902034122 | 68 | 0 | 0.0 | 0.0 | 0.00 | 0.00 | 0.00 | 54 | 1014.4 |
| 20260902033143 | 68 | 0 | 0.0 | 0.0 | 0.00 | 0.00 | 0.00 | 54 | 1014.4 |
| 20260902032122 | 68 | 0 | 0.0 | 0.0 | 0.00 | 0.00 | 0.00 | 52 | 1014.2 |
| 20260902031122 | 69 | 128 | 0.0 | 1.0 | 0.00 | 0.00 | 0.00 | 51 | 1014.2 |
| 20260902030123 | 70 | 0 | 0.0 | 1.0 | 0.00 | 0.00 | 0.00 | 50 | 1014.2 |
| 20260902025122 | 70 | 128 | 0.0 | 1.0 | 0.00 | 0.00 | 0.00 | 48 | 1014.1 |
| 20260902024122 | 71 | 129 | 0.0 | 2.0 | 0.00 | 0.00 | 0.00 | 46 | 1014.0 |
| 20260902023122 | 71 | 132 | 0.0 | 1.0 | 0.00 | 0.00 | 0.00 | 45 | 1013.9 |
| 20260902022122 | 72 | 0 | 0.0 | 0.0 | 0.00 | 0.00 | 0.00 | 46 | 1013.7 |
| 20260902021122 | 73 | 135 | 0.0 | 1.0 | 0.00 | 0.00 | 0.00 | 46 | 1013.9 |
| 20260902020122 | 73 | 0 | 0.0 | 0.0 | 0.00 | 0.00 | 0.00 | 45 | 1013.8 |
| 20260902015122 | 74 | 0 | 0.0 | 0.0 | 0.00 | 0.18 | 0.00 | 43 | 1014.0 |
| 20260902014122 | 75 | 136 | 0.0 | 2.0 | 0.00 | 0.18 | 0.00 | 41 | 1014.0 |
| 20260902013122 | 76 | 87 | 0.0 | 1.0 | 0.00 | 0.18 | 0.00 | 38 | 1014.0 |
| 20260902012122 | 76 | 121 | 0.0 | 2.0 | 0.00 | 0.18 | 0.00 | 39 | 1014.0 |
| 20260902011122 | 77 | 181 | 0.0 | 2.0 | 0.00 | 0.18 | 0.00 | 42 | 1014.2 |
| 20260902010143 | 78 | 187 | 1.0 | 2.0 | 0.00 | 0.18 | 0.00 | 38 | 1014.4 |
| 20260902005122 | 78 | 193 | 1.0 | 6.0 | 0.00 | 0.43 | 0.00 | 35 | 1014.2 |
| 20260902004122 | 78 | 184 | 1.0 | 5.0 | 0.00 | 0.43 | 0.00 | 40 | 1014.2 |
| 20260902003122 | 78 | 194 | 2.0 | 4.0 | 0.00 | 0.43 | 0.00 | 33 | 1014.3 |
| 20260902002122 | 78 | 149 | 2.0 | 6.0 | 0.00 | 0.43 | 0.00 | 32 | 1014.3 |
| 20260902001122 | 79 | 190 | 2.0 | 7.0 | 0.00 | 0.43 | 0.00 | 33 | 1014.4 |
| 20260902000122 | 79 | 190 | 4.0 | 11.0 | 0.00 | 0.43 | 0.00 | 31 | 1014.4 |
| 20260901235143 | 79 | 186 | 2.0 | 10.0 | 0.00 | 0.43 | 0.00 | 35 | 1014.5 |
| 20260901234122 | 79 | 184 | 2.0 | 5.0 | 0.00 | 0.43 | 0.00 | 36 | 1014.7 |
| 20260901233122 | 79 | 144 | 2.0 | 7.0 | 0.00 | 0.43 | 0.00 | 38 | 1014.7 |
| 20260901232122 | 78 | 128 | 2.0 | 6.0 | 0.00 | 0.43 | 0.00 | 37 | 1014.9 |
| 20260901231122 | 78 | 123 | 2.0 | 7.0 | 0.00 | 0.43 | 0.00 | 37 | 1015.0 |
| 20260901230122 | 79 | 125 | 2.0 | 9.0 | 0.00 | 0.43 | 0.00 | 41 | 1015.1 |
| 20260901225122 | 79 | 123 | 1.0 | 4.0 | 0.00 | 0.43 | 0.00 | 37 | 1015.2 |
| 20260901224122 | 79 | 197 | 4.0 | 11.0 | 0.00 | 0.43 | 0.00 | 37 | 1015.2 |
| 20260901223122 | 79 | 196 | 4.0 | 9.0 | 0.00 | 0.43 | 0.00 | 37 | 1015.3 |
| 20260901222122 | 78 | 183 | 2.0 | 5.0 | 0.00 | 0.43 | 0.00 | 37 | 1015.5 |
| 20260901221122 | 79 | 118 | 3.0 | 8.0 | 0.00 | 0.43 | 0.00 | 35 | 1015.4 |
| 20260901220122 | 80 | 106 | 3.0 | 7.0 | 0.00 | 0.43 | 0.00 | 38 | 1015.5 |
| 20260901215122 | 80 | 177 | 1.0 | 4.0 | 0.00 | 0.43 | 0.00 | 35 | 1015.6 |
| 20260901214123 | 80 | 182 | 2.0 | 6.0 | 0.00 | 0.43 | 0.00 | 37 | 1015.8 |
| 20260901213122 | 78 | 192 | 3.0 | 8.0 | 0.00 | 0.43 | 0.00 | 35 | 1015.9 |
| 20260901212122 | 79 | 203 | 5.0 | 11.0 | 0.00 | 0.43 | 0.00 | 34 | 1016.2 |
| 20260901211122 | 80 | 190 | 5.0 | 15.0 | 0.00 | 0.43 | 0.00 | 35 | 1016.3 |
| 20260901210122 | 79 | 190 | 5.0 | 13.0 | 0.00 | 0.43 | 0.00 | 37 | 1016.6 |
| 20260901205122 | 79 | 176 | 2.0 | 6.0 | 0.00 | 0.43 | 0.00 | 40 | 1016.8 |
| 20260901204122 | 79 | 110 | 3.0 | 8.0 | 0.00 | 0.43 | 0.00 | 44 | 1016.6 |
| 20260901203122 | 79 | 103 | 2.0 | 7.0 | 0.00 | 0.43 | 0.00 | 44 | 1016.8 |
| 20260901202143 | 78 | 95 | 3.0 | 10.0 | 0.00 | 0.43 | 0.00 | 44 | 1017.0 |
| 20260901201122 | 78 | 149 | 1.0 | 5.0 | 0.00 | 0.43 | 0.00 | 45 | 1017.1 |
| 20260901200122 | 77 | 122 | 3.0 | 7.0 | 0.00 | 0.43 | 0.00 | 45 | 1017.3 |
| 20260901195122 | 76 | 118 | 1.0 | 6.0 | 0.00 | 0.43 | 0.00 | 46 | 1017.4 |
| 20260901194122 | 76 | 109 | 1.0 | 3.0 | 0.00 | 0.43 | 0.00 | 47 | 1017.7 |
| 20260901193122 | 76 | 125 | 2.0 | 5.0 | 0.00 | 0.43 | 0.00 | 48 | 1017.8 |
| 20260901192143 | 75 | 114 | 0.0 | 2.0 | 0.00 | 0.43 | 0.00 | 49 | 1017.9 |
| 20260901191122 | 75 | 119 | 1.0 | 3.0 | 0.00 | 0.43 | 0.00 | 49 | 1018.1 |
| 20260901190122 | 74 | 0 | 0.0 | 0.0 | 0.00 | 0.43 | 0.00 | 51 | 1018.2 |
| 20260901185122 | 73 | 342 | 0.0 | 3.0 | 0.00 | 0.43 | 0.00 | 50 | 1018.3 |
| 20260901184123 | 73 | 0 | 0.0 | 0.0 | 0.00 | 0.43 | 0.00 | 52 | 1018.5 |
| 20260901183122 | 73 | 140 | 0.0 | 2.0 | 0.00 | 0.43 | 0.00 | 55 | 1018.5 |
| 20260901182122 | 72 | 0 | 0.0 | 0.0 | 0.00 | 0.43 | 0.00 | 57 | 1018.6 |
| 20260901181122 | 71 | 207 | 0.0 | 1.0 | 0.00 | 0.43 | 0.00 | 61 | 1018.6 |
| 20260901180122 | 70 | 207 | 1.0 | 4.0 | 0.00 | 0.43 | 0.00 | 62 | 1018.7 |
| 20260901175122 | 69 | 216 | 1.0 | 5.0 | 0.00 | 0.43 | 0.00 | 68 | 1018.8 |
| 20260901174122 | 68 | 0 | 0.0 | 0.0 | 0.00 | 0.43 | 0.00 | 65 | 1018.8 |
| 20260901173122 | 68 | 189 | 1.0 | 5.0 | 0.00 | 0.43 | 0.00 | 68 | 1018.9 |
| 20260901172143 | 66 | 150 | 0.0 | 3.0 | 0.00 | 0.43 | 0.00 | 68 | 1019.0 |
| 20260901171122 | 65 | 0 | 0.0 | 1.0 | 0.00 | 0.43 | 0.00 | 72 | 1019.0 |
| 20260901170143 | 64 | 233 | 0.0 | 1.0 | 0.00 | 0.43 | 0.00 | 76 | 1019.1 |
| 20260901165123 | 62 | 0 | 0.0 | 0.0 | 0.00 | 0.43 | 0.00 | 78 | 1019.2 |
| 20260901164122 | 62 | 234 | 0.0 | 1.0 | 0.00 | 0.43 | 0.00 | 82 | 1019.2 |
| 20260901163122 | 61 | 236 | 0.0 | 3.0 | 0.00 | 0.43 | 0.00 | 85 | 1019.2 |
| 20260901162122 | 60 | 246 | 0.0 | 3.0 | 0.00 | 0.43 | 0.00 | 87 | 1019.2 |
| 20260901161122 | 59 | 281 | 0.0 | 2.0 | 0.00 | 0.43 | 0.00 | 88 | 1019.3 |
| 20260901160122 | 58 | 291 | 0.0 | 3.0 | 0.00 | 0.43 | 0.00 | 89 | 1019.5 |
| 20260901155122 | 57 | 292 | 0.0 | 1.0 | 0.00 | 0.43 | 0.00 | 90 | 1019.5 |
| 20260901154122 | 56 | 305 | 0.0 | 1.0 | 0.00 | 0.43 | 0.00 | 90 | 1019.5 |
| 20260901153121 | 55 | 301 | 0.0 | 1.0 | 0.00 | 0.43 | 0.00 | 89 | 1019.5 |
| 20260901152121 | 54 | 301 | 0.0 | 1.0 | 0.00 | 0.43 | 0.00 | 89 | 1019.6 |
| 20260901151121 | 54 | 0 | 0.0 | 1.0 | 0.00 | 0.43 | 0.00 | 89 | 1019.7 |
| 20260901150121 | 54 | 0 | 0.0 | 0.0 | 0.00 | 0.43 | 0.00 | 89 | 1019.7 |
| 20260901145122 | 54 | 0 | 0.0 | 0.0 | 0.00 | 0.43 | 0.00 | 89 | 1019.6 |
| 20260901144121 | 54 | 0 | 0.0 | 0.0 | 0.00 | 0.43 | 0.00 | 89 | 1019.7 |
| 20260901143121 | 54 | 0 | 0.0 | 0.0 | 0.00 | 0.43 | 0.00 | 89 | 1019.7 |
| 20260901142122 | 54 | 0 | 0.0 | 0.0 | 0.00 | 0.43 | 0.00 | 89 | 1019.6 |
| 20260901141122 | 54 | 0 | 0.0 | 0.0 | 0.00 | 0.43 | 0.00 | 89 | 1019.7 |
| 20260901140121 | 53 | 0 | 0.0 | 0.0 | 0.00 | 0.43 | 0.00 | 89 | 1019.6 |
| 20260901135142 | 52 | 0 | 0.0 | 0.0 | 0.00 | 0.43 | 0.00 | 89 | 1019.4 |
| 20260901134122 | 52 | 0 | 0.0 | 0.0 | 0.00 | 0.43 | 0.00 | 88 | 1019.4 |
| 20260901133121 | 51 | 0 | 0.0 | 0.0 | 0.00 | 0.43 | 0.00 | 88 | 1019.2 |
| 20260901132121 | 51 | 0 | 0.0 | 0.0 | 0.00 | 0.43 | 0.00 | 88 | 1019.2 |
| 20260901131122 | 51 | 0 | 0.0 | 0.0 | 0.00 | 0.43 | 0.00 | 88 | 1019.2 |
| 20260901130121 | 51 | 0 | 0.0 | 0.0 | 0.00 | 0.43 | 0.00 | 88 | 1018.9 |
| 20260901125122 | 52 | 0 | 0.0 | 0.0 | 0.00 | 0.43 | 0.00 | 87 | 1018.9 |
| 20260901124121 | 52 | 0 | 0.0 | 0.0 | 0.00 | 0.43 | 0.00 | 88 | 1018.8 |
| 20260901123121 | 52 | 0 | 0.0 | 0.0 | 0.00 | 0.43 | 0.00 | 88 | 1018.8 |
| 20260901122121 | 52 | 0 | 0.0 | 0.0 | 0.00 | 0.43 | 0.00 | 87 | 1018.9 |
| 20260901121122 | 52 | 0 | 0.0 | 0.0 | 0.00 | 0.43 | 0.00 | 87 | 1018.9 |
| 20260901120122 | 52 | 0 | 0.0 | 0.0 | 0.00 | 0.43 | 0.00 | 87 | 1018.8 |
| 20260901115122 | 52 | 0 | 0.0 | 0.0 | 0.00 | 0.43 | 0.00 | 87 | 1018.8 |
| 20260901114122 | 53 | 0 | 0.0 | 0.0 | 0.00 | 0.43 | 0.00 | 87 | 1018.7 |
| 20260901113122 | 53 | 0 | 0.0 | 0.0 | 0.00 | 0.43 | 0.00 | 87 | 1018.7 |
| 20260901112122 | 53 | 0 | 0.0 | 0.0 | 0.00 | 0.43 | 0.00 | 88 | 1018.7 |
| 20260901111122 | 53 | 0 | 0.0 | 0.0 | 0.00 | 0.43 | 0.00 | 88 | 1018.8 |
| 20260901110143 | 53 | 0 | 0.0 | 0.0 | 0.00 | 0.43 | 0.00 | 88 | 1018.7 |
| 20260901105122 | 53 | 306 | 1.0 | 2.0 | 0.00 | 0.43 | 0.00 | 88 | 1018.9 |
| 20260901104122 | 53 | 304 | 0.0 | 1.0 | 0.00 | 0.43 | 0.00 | 87 | 1018.7 |
| 20260901103122 | 54 | 0 | 0.0 | 0.0 | 0.00 | 0.43 | 0.00 | 87 | 1018.9 |
| 20260901102122 | 54 | 305 | 2.0 | 3.0 | 0.00 | 0.43 | 0.00 | 87 | 1018.9 |
| 20260901101122 | 54 | 0 | 0.0 | 0.0 | 0.00 | 0.43 | 0.00 | 88 | 1018.8 |
| 20260901100143 | 55 | 0 | 0.0 | 0.0 | 0.00 | 0.43 | 0.00 | 88 | 1018.7 |
| 20260901095122 | 55 | 0 | 0.0 | 0.0 | 0.00 | 0.43 | 0.00 | 88 | 1018.7 |
| 20260901094143 | 55 | 322 | 2.0 | 4.0 | 0.00 | 0.43 | 0.00 | 87 | 1018.7 |
| 20260901093122 | 55 | 0 | 0.0 | 0.0 | 0.00 | 0.43 | 0.00 | 88 | 1018.7 |
| 20260901092122 | 55 | 0 | 0.0 | 0.0 | 0.00 | 0.43 | 0.00 | 88 | 1018.7 |
| 20260901091122 | 56 | 0 | 0.0 | 0.0 | 0.00 | 0.43 | 0.00 | 88 | 1018.7 |
| 20260901090122 | 56 | 0 | 0.0 | 1.0 | 0.00 | 0.43 | 0.00 | 88 | 1018.6 |
| 20260901085122 | 56 | 294 | 0.0 | 1.0 | 0.00 | 0.43 | 0.00 | 88 | 1018.7 |
| 20260901084143 | 56 | 0 | 0.0 | 0.0 | 0.00 | 0.43 | 0.00 | 88 | 1018.6 |